Location: Clanezzo
(45.7500°N, 9.6000°E)
Time: 04:41:05
(UTC+00:00)

RS-15 - Visible Passes

Search period start: 26 June 2022 00:00
Search period end: 06 July 2022 00:00
Orbit: 1881 x 2163 km, 64.8° (Epoch: 25 June)

Date Brightness Start Highest point End Pass type
(mag) Time Alt. Az. Time Alt. Az. Time Alt. Az.
26 Jun 8.2 00:35:42 10° NW 00:47:44 62° WSW 00:58:14 14° S visible
26 Jun 9.3 02:51:55 10° WNW 02:57:23 14° W 03:02:47 10° WSW visible
26 Jun 9.7 19:31:01 10° WNW 19:41:35 31° N 19:52:11 10° ENE visible
26 Jun 9.0 21:46:24 10° NW 21:58:13 46° NNE 22:09:43 10° ESE visible
26 Jun 8.1 23:59:30 10° NW 00:11:50 76° WSW 00:22:08 16° SSE visible
27 Jun 9.1 02:14:09 10° NW 02:22:07 21° W 02:29:46 10° SW visible
27 Jun 9.2 21:10:02 10° NW 21:21:31 40° NNE 21:32:47 10° E visible
27 Jun 8.1 23:23:21 10° NW 23:35:49 89° ENE 23:46:15 16° SSE visible
28 Jun 8.9 01:37:10 10° NW 01:46:43 28° W 01:53:54 16° SW visible
28 Jun 9.4 20:33:34 10° NW 20:44:43 36° NNE 20:55:42 10° E visible
28 Jun 8.3 22:47:12 10° NW 22:59:40 76° NE 23:10:31 14° SE visible
29 Jun 8.6 01:00:33 10° NW 01:11:12 37° WSW 01:18:11 21° SSW visible
29 Jun 9.5 19:56:56 10° NW 20:07:49 33° NNE 20:18:35 10° ENE visible
29 Jun 8.5 22:11:01 10° NW 22:23:23 64° NE 22:34:55 11° SE visible
30 Jun 8.4 00:24:08 10° NW 00:35:34 48° WSW 00:42:36 24° SSW visible
30 Jun 8.7 21:34:49 10° NW 21:46:58 54° NE 21:58:43 10° ESE visible
30 Jun 8.2 23:47:51 10° NW 23:59:48 60° WSW 00:07:07 27° S visible
01 Jul 9.4 02:04:27 10° WNW 02:09:22 13° W 02:14:13 10° WSW visible
01 Jul 8.9 20:58:34 10° NW 21:10:24 47° NNE 21:21:57 10° ESE visible
01 Jul 8.1 23:11:38 10° NW 23:23:56 74° WSW 23:31:42 26° SSE visible
02 Jul 9.2 01:26:27 10° NW 01:34:06 20° W 01:39:24 14° SW visible
02 Jul 9.1 20:22:12 10° NW 20:33:44 41° NNE 20:45:00 10° E visible
02 Jul 8.1 22:35:28 10° NW 22:47:56 88° SW 22:56:22 24° SSE visible
03 Jul 9.0 00:49:23 10° NW 00:58:44 27° W 01:04:04 20° SW visible
03 Jul 9.3 19:45:44 10° NW 19:56:57 37° NNE 20:07:57 10° E visible
03 Jul 8.2 21:59:19 10° NW 22:11:48 78° NE 22:21:06 20° SE visible
04 Jul 8.7 00:12:44 10° NW 00:23:14 36° WSW 00:28:48 24° SSW visible
04 Jul 8.4 21:23:09 10° NW 21:35:32 66° NE 21:45:53 16° SE visible
04 Jul 8.5 23:36:17 10° NW 23:47:37 46° WSW 23:53:36 28° SSW visible
05 Jul 8.6 20:46:57 10° NW 20:59:08 56° NE 21:10:44 11° ESE visible
05 Jul 8.3 23:00:00 10° NW 23:11:53 58° WSW 23:18:26 30° S visible
